Pt. Reyes RCA field Weather observations

Data are for 10 minute period ending at time listed.
 Day   Time   Solar   Ave.   Ave.  Ave.  Vector    Max.   Stn.   Total 
  of    of     Rad.   Air    Rel.  Wind   Wind     Wind   Baro. Precip.
Year   Day            Temp.  Hum.  Speed  Dir.     Gust   Pres.        
2017   (PST)   W/m2    F      %     mph   deg.      mph    mb.    in.  
-----------------------------------------------------------------------
 178   13:30  518.0    60   84.8    16    303.4    22.3   1011.5  0.00  
 178   13:40  502.0    59   84.9    17    303.4    21.9   1011.5  0.00  
 178   13:50  475.0    59   85.3    17    306.6    21.5   1011.5  0.00  
 178   14:00  467.0    59   85.7    15    307.5    21.9   1011.5  0.00  
 178   14:10  458.0    59   85.4    16    300.4    20.3   1011.5  0.00  
 178   14:20  434.0    59   85.4    15    298.3    20.1   1011.5  0.00  
 178   14:30  460.0    59   85.3    15    301.7    22.3   1011.5  0.00  
 178   14:40  433.0    59   84.9    16    303.6    20.3   1011.5  0.00  
 178   14:50  400.0    59   85.7    16    295.7    20.8   1011.5  0.00  
 178   15:00  371.0    59   86.0    14    289.9    19.3   1011.5  0.00  
 178   15:10  406.0    59   86.0    13    288.5    19.4   1011.5  0.00  
 178   15:20  493.0    59   84.7    14    276.4    18.9   1011.5  0.00  
 178   15:30  526.0    59   84.8    15    274.2    17.5   1011.5  0.00  
 178   15:40  472.0    60   84.9    12    269.0    17.4   1011.2  0.00  
 178   15:50  405.0    60   84.4    12    269.9    16.7   1011.2  0.00  
 178   16:00  341.0    59   85.3    13    272.4    18.7   1011.2  0.00  
 178   16:10  360.0    59   85.5    13    271.5    16.4   1010.8  0.00  
 178   16:20  353.0    59   85.2    12    279.9    16.6   1010.8  0.00  
 178   16:30  403.0    59   85.1    12    284.0    16.3   1010.8  0.00  
 178   16:40  381.0    59   84.5    12    287.9    15.7   1010.5  0.00  
 178   16:50  386.0    60   84.2    12    284.9    15.6   1010.5  0.00  
 178   17:00  351.0    60   84.0    12    290.8    15.8   1010.5  0.00  
 178   17:10  305.0    59   84.7    12    285.5    15.9   1010.5  0.00  
 178   17:20  284.0    59   84.9    13    280.1    16.4   1010.2  0.00  
 178   17:30  252.0    59   85.7    12    283.5    15.1   1010.2  0.00  
 178   17:40  239.0    59   85.2    12    277.8    16.8   1010.2  0.00  
 178   17:50  227.0    58   86.0    13    276.3    16.9   1010.2  0.00  
 178   18:00  143.0    58   86.5    12    276.1    15.0   1010.2  0.00  
 178   18:10  102.0    58   87.2    11    280.9    15.0   1010.2  0.00  
 178   18:20   77.0    57   88.0    12    278.1    15.4   1010.2  0.00  
 178   18:30   60.0    57   88.5    11    274.8    15.0   1010.2  0.00  
 178   18:40   45.0    57   89.1    11    274.5    15.1   1010.2  0.00  
 178   18:50   38.0    57   89.6    11    273.7    15.3   1010.2  0.00  
 178   19:00   30.0    57   90.0    11    277.0    15.3   1010.2  0.00  
 178   19:10   21.0    57   90.3    11    279.6    15.9   1010.2  0.00  
 178   19:20   13.0    57   90.6    11    283.0    15.9   1010.2  0.00  
 178   19:30    6.0    56   90.9    12    277.9    16.6   1010.2  0.00  
 178   19:40    3.0    56   91.2    12    282.7    16.5   1010.2  0.00  
 178   19:50    0.0    56   91.4    13    290.0    16.8   1009.8  0.00  
 178   20:00    0.0    56   91.4    11    295.3    14.9   1009.8  0.00  
 178   20:10    0.0    56   91.7    11    292.8    15.1   1009.8  0.00  
 178   20:20    0.0    56   91.8    12    289.8    15.9   1009.8  0.00  
 178   20:30    0.0    56   91.7    13    288.6    17.7   1009.8  0.01  
 178   20:40    0.0    56   91.5    14    290.6    20.5   1009.8  0.00  
 178   20:50    0.0    56   91.5    13    292.0    18.4   1009.8  0.00  
 178   21:00    0.0    56   91.5    14    294.9    20.0   1009.8  0.00  
 178   21:10    0.0    56   91.6    12    293.4    18.6   1009.8  0.00  
 178   21:20    0.0    56   91.7    13    296.7    18.8   1009.8  0.01  
 178   21:30    0.0    56   91.6    14    301.7    17.9   1010.2  0.00  
 178   21:40    0.0    56   91.6    14    301.5    19.6   1010.2  0.00  
 178   21:50    0.0    56   91.7    13    299.8    18.1   1010.2  0.00  
 178   22:00    0.0    56   91.6    15    298.0    19.7   1010.2  0.00  
 178   22:10    0.0    56   91.7    13    300.5    21.3   1010.2  0.00  
 178   22:20    0.0    56   91.7    14    302.0    18.2   1009.8  0.01  
 178   22:30    0.0    56   92.0    14    298.8    19.4   1009.8  0.02  
 178   22:40    0.0    56   91.9    14    298.5    20.1   1009.8  0.02  
 178   22:50    0.0    55   91.9    14    297.9    19.6   1009.8  0.02  
 178   23:00    0.0    55   91.9    14    299.0    20.5   1009.8  0.16  
 178   23:10    0.0    55   91.9    14    298.7    18.0   1009.8  0.03  
 178   23:20    0.0    55   91.9    14    299.4    19.4   1009.8  0.00  
 178   23:30    0.0    55   91.9    14    301.9    19.6   1009.8  0.00  
 178   23:40    0.0    55   92.0    13    304.3    17.4   1009.8  0.00  
 178   23:50    0.0    55   92.1    14    304.2    18.3   1009.8  0.01  
 179    0:00    0.0    55   92.3    14    303.9    20.0   1009.5  0.04  
 179    0:10    0.0    55   92.4    14    305.3    18.9   1009.5  0.01  
 179    0:20    0.0    55   92.3    14    303.8    20.3   1009.5  0.01  
 179    0:30    0.0    55   92.4    14    305.4    18.6   1009.5  0.01  
 179    0:40    0.0    55   92.5    13    305.8    16.6   1009.1  0.00  
 179    0:50    0.0    55   92.7    13    309.0    17.2   1009.1  0.07  
 179    1:00    0.0    55   92.9    13    307.8    17.3   1009.1  0.00  
 179    1:10    0.0    54   93.2    12    308.7    17.4   1009.1  0.00  
 179    1:20    0.0    54   93.4    12    299.8    16.6   1009.1  0.00  
 179    1:30    0.0    54   93.6    11    302.7    14.8   1009.1  0.00  
 179    1:40    0.0    54   93.8    10    294.6    14.0   1009.1  0.00  
 179    1:50    0.0    54   93.9    10    300.5    14.5   1009.1  0.00  
 179    2:00    0.0    54   94.1    11    306.8    14.7   1008.8  0.00  
 179    2:10    0.0    54   94.5    10    313.1    12.3   1008.8  0.03  
 179    2:20    0.0    54   94.6    10    300.9    15.1   1008.8  0.00  
 179    2:30    0.0    54   94.8    10    311.6    13.2   1008.8  0.00  
 179    2:40    0.0    54   95.1    11    305.9    15.1   1008.8  0.05  
 179    2:50    0.0    54   95.4    12    308.4    18.8   1008.8  0.00  
 179    3:00    0.0    53   95.9    11    315.7    15.7   1008.8  0.00  
 179    3:10   -1.0    53   96.3     8    317.4    13.7   1008.8  0.00  
 179    3:20   -1.0    53   96.6     9    320.1    12.6   1008.5  0.00  
 179    3:30   -2.0    54   96.8     7    310.8     9.6   1008.5  0.00  
 179    3:40   -1.0    54   96.8     7    307.1     9.6   1008.5  0.00  
 179    3:50    0.0    54   96.8     6    307.2     8.8   1008.5  0.00  
 179    4:00   -1.0    53   96.8     4    311.7     9.6   1008.5  0.00  
 179    4:10   -1.0    53   96.8     5    282.7     7.2   1008.5  0.00  
 179    4:20   -1.0    53   96.9     3    284.1     4.5   1008.8  0.00  
 179    4:30    0.0    53   97.0     8    266.7    11.5   1008.8  0.00  
 179    4:40    0.0    52   97.3     6    249.1    10.0   1008.8  0.00  
 179    4:50    0.0    52   97.6     5    250.0     7.6   1008.8  0.00  
 179    5:00    2.0    52   97.7     6    273.3     8.8   1009.1  0.00  
 179    5:10    5.0    52   97.8     4    283.0     6.6   1009.1  0.00  
 179    5:20    7.0    52   97.9     3    264.6     6.9   1009.1  0.00  
 179    5:30   11.0    52   97.9     4    268.0     6.5   1009.1  0.00  
 179    5:40   16.0    52   98.0     4    269.2     6.9   1009.1  0.00  
 179    5:50   21.0    51   98.1     5    281.3     8.6   1009.5  0.00  
 179    6:00   33.0    52   98.1     4    296.0     7.5   1009.5  0.00  
 179    6:10   37.0    52   98.2     3    298.0     5.0   1009.5  0.00  
 179    6:20   41.0    52   98.2     2    266.9     7.7   1009.5  0.00  
 179    6:30   43.0    52   98.2     4    258.5     7.7   1009.5  0.00  
 179    6:40   53.0    52   98.2     3    244.9     5.0   1009.8  0.00  
 179    6:50   60.0    52   98.3     4    256.3     8.4   1009.8  0.00  
 179    7:00   80.0    52   98.3     5    287.4     7.1   1009.8  0.00  
 179    7:10   82.0    52   98.3     4    276.7     7.0   1009.8  0.00  
 179    7:20  101.0    52   98.3     4    223.6     6.8   1009.8  0.00  
 179    7:30  156.0    52   98.3     1    226.9     3.8   1009.8  0.00  
 179    7:40  162.0    52   98.4     2    281.2     4.7   1009.8  0.00  
 179    7:50  159.0    52   98.4     3    326.9     5.8   1010.2  0.00  
 179    8:00  160.0    52   98.4     2    356.2     3.9   1010.2  0.00  
 179    8:10  172.0    53   98.4     1    275.3     4.2   1010.2  0.00  
 179    8:20  178.0    53   98.4     4    256.5     8.1   1010.2  0.00  
 179    8:30  205.0    52   98.3     6    261.2     9.7   1010.5  0.00  
 179    8:40  229.0    52   98.2     5    265.0     7.4   1010.5  0.00  
 179    8:50  244.0    53   98.3     4    240.2     6.7   1010.5  0.00  
 179    9:00  255.0    53   98.2     3    196.8     4.8   1010.5  0.00  
 179    9:10  249.0    53   98.1     3    239.3     6.2   1010.5  0.00  
 179    9:20  276.0    53   98.1     2    205.3     7.8   1010.5  0.00  
 179    9:30  303.0    53   97.9     4    236.4     7.6   1010.5  0.00  
 179    9:40  323.0    53   97.8     4    261.9     8.2   1010.5  0.00  
 179    9:50  332.0    54   97.7     2    288.4     6.9   1010.5  0.00  
 179   10:00  370.0    54   97.5     5    277.7     7.2   1010.5  0.00  
 179   10:10  440.0    54   97.2     5    296.4     9.1   1010.8  0.00  
 179   10:20  439.0    54   96.5     5    284.6     8.3   1010.8  0.00  
 179   10:30  454.0    55   95.8     6    294.0    10.7   1010.8  0.00  
 179   10:40  470.0    55   94.6     7    265.2    10.9   1010.8  0.00  
 179   10:50  515.0    56   93.2    10    283.8    13.1   1010.8  0.00  
 179   11:00  544.0    56   91.4    10    285.1    14.0   1010.8  0.00  
 179   11:10  556.0    56   91.0    10    291.8    13.5   1010.8  0.00  
 179   11:20  541.0    56   90.4    10    292.3    13.9   1011.2  0.00  
 179   11:30  514.0    56   90.2    10    289.8    14.2   1011.2  0.00  
 179   11:40  506.0    56   90.0    10    300.1    13.1   1011.2  0.00  
 179   11:50  529.0    56   90.2    11    304.7    14.3   1011.2  0.00  
 179   12:00  522.0    56   90.6    12    305.2    15.8   1011.2  0.00  
 179   12:10  496.0    56   90.8    12    304.0    15.1   1011.2  0.00  
 179   12:20  483.0    56   90.3    13    302.0    16.4   1011.2  0.00  
 179   12:30  446.0    56   90.3    11    304.1    15.3   1011.2  0.00  
 179   12:40  424.0    56   89.9    12    297.7    16.4   1011.2  0.00  
 179   12:50  422.0    56   89.9    12    303.2    16.1   1011.2  0.00  
 179   13:00  414.0    56   89.6    13    307.3    17.0   1011.2  0.00  
 179   13:10  433.0    56   90.1    14    306.5    18.3   1010.8  0.00  
 179   13:20  419.0    56   90.1    14    306.7    17.0   1010.8  0.00  

Return to Pt. Reyes graphs page.


Western Regional Climate Center,wrcc@dri.edu